STARLINK-34440 (64614 NORAD) Tracking and Keplerian Element Data

This shows tracking and keplerian element data for the satellite.

Feedback or suggestion? Click here.




ElementValue
Catalog64614
NameSTARLINK-34440
Epoch Orbit2854
Epoch Day354.16256375
Epoch Year2025
RAAN345.7159
Inclination53.1603
Eccentricity0.0001639
Argument of Perigee68.3897
Mean Anonmoly291.7282
Mean Motion15.39636186
Decay Rate0.00031258
L11 64614U 25137W 25354.16256375 .00031258 00000+0 78781-3 0 9995
L22 64614 53.1603 345.7159 0001639 68.3897 291.7282 15.39636186 28543



Live tracking and technical data element details for STARLINK-34440 (NORAD 64614). STARLINK-34440 can be tracked NOW for your location showing map with azimuth and elevation plus other details from your city location.







IsCatalogInMostPopularTable: catalog: 64614, numindb: 12
Update: records affected: 1



GetName: 64614 STARLINK-34440

Hit Count: updated at: Mon, 20 Apr 2026 10:37:53 GMT